INTELSAT 33E DEB, 61997

Orbit data source: Space-Track

INTELSAT 33E DEB, 61997 is space debris in GEO originally from a launch on Wed, 24 Aug 2016 UTC launched from the French Guiana (FRGUI). Debris objects in space refer to the collection of defunct objects orbiting the Earth. Examples of debris include non-operational satellites, rocket bodies, and fragments generated from explosions, collisions, or faulty payload assembly.

Loading next visibility...
Identifier
61997, 2016-053P
Orbit
GEO
Country
Flag of UnknownUnknown / ITSO
Related business
Manufacturer
Boeing/ES
Mission
Spacecraft
Bus & Motor
Unknown
Mass
Unknown
Launch date (UTC)
2016-08-24 (9 years ago)
Launch vehicle
Unknown
Launch site
French Guiana (FRGUI)
Object type
Payload
Rocket body
Debris
Shape & HBR
Unknown shape, 1.1 m
Radar Cross Section
RCS unknown

Expand to show TLE details & history
Last TLE update: 1 day ago

TLE from 1 day ago
0 INTELSAT 33E DEB
1 61997U 16053P   25340.32796339 -.00000201  00000-0  00000-0 0  9997
2 61997   1.0785  88.9716 0097363 259.0791  98.5354  1.01614297  4206
Epoch: 2025-12-06T07:52Z
TLE epoch observation values (Epoch: 2025-12-06T07:52:16.036Z)
Latitude
-0°
Longitude
-105.75343°
Altitude
35,477.434 km
Speed
3.084 km/s
True Right ascension
05h 50m 40s
True Declination
0° 00' 00"
Sunlit
Object was in daylight at epoch
Visualization orbit readout
Latitude
Unknown
Longitude
Unknown
Altitude
Unknown
Speed
Unknown
Apparent Right ascension
Unknown
Apparent Declination
Unknown
Sunlit
N/A
Visualization observer readout
Local Sidereal Time
12:44:36
Azimuth
Unknown
Elevation
Unknown
Doppler factor
Unknown
Orbital elements
Apogee altitude
35,822.384 km
Perigee altitude
35,008.554 km
Semi-major axis
41,793.606 km
Eccentricity
0.00974
Inclination
1.0785°
RAAN
88.9716°
Arg. of periapsis
259.0791°
True anomaly
99.63668°
Mean anomaly
98.5354°
Eccentric anomaly
99.08625°
Mean motion
0.25403 °/min
Orbital period
1,417.18 mins
BSTAR
0
Loading maneuver chart data...
Computing Atmospheric mass density...
Loading historical data...
Loading historical data...
Loading historical data...
Loading historical data...
Loading historical data...
Loading historical data...
Loading historical data...

Documentation

Showing up to 5 results
|